Regional Weather Roundup
Issued by NWS

Home | Current Version | Previous Version | Graphics & Text | Print | Product List | Glossary On
Versions: 1 2 3 4 5 6 7 8 9 10 11 12 13 14 15 16 17 18 19 20 21 22 23 24 25 26 27 28 29 30 31 32 33 34 35 36 37 38 39 40 41 42 43 44 45 46 47 48 49 50
000
ASUS43 KLOT 010303
RWRIL

ILLINOIS REGIONAL WEATHER ROUNDUP
NATIONAL WEATHER SERVICE CHICAGO/ROMEOVILLE IL
1000 PM CDT SUN APR 30 2017

NOTE: "FAIR" INDICATES FEW OR NO CLOUDS BELOW 12,000 FEET WITH NO
SIGNIFICANT WEATHER AND/OR OBSTRUCTIONS TO VISIBILITY.

* THESE STATIONS ARE NOT UNDER NWS QUALITY CONTROL. THEY ALSO MAY NOT
  REPORT WEATHER SUCH AS PRECIPITATION OR FOG.

ILZ001-002-007-009-015-016-024-010400-
NORTHWEST ILLINOIS

CITY           SKY/WX    TMP DP  RH WIND       PRES   REMARKS
MOLINE         RAIN      49  46  90 NE10      29.51F
STERLING*      LGT RAIN  45  44  97 E16G22    29.53S
SAVANNA*       RAIN      44  42  95 E13G20    29.54F
$$

ILZ003-004-008-010-011-017-018-010400-
NORTH CENTRAL ILLINOIS

CITY           SKY/WX    TMP DP  RH WIND       PRES   REMARKS
ROCKFORD       TSTM      44  42  93 NE16      29.60F FOG
FREEPORT*      CLOUDY    42  41  97 E9        29.60R
ROCHELLE*      TSTM      44  44  98 E24G32    29.54F
DE KALB*       CLOUDY    45  44  98 E14       29.58F
$$

ILZ005-006-012>014-019>023-010400-
NORTHEAST ILLINOIS

CITY           SKY/WX    TMP DP  RH WIND       PRES   REMARKS
CHICAGO-OHARE  LGT RAIN  45  44  97 NE8       29.62S VSB 1/2
CHICAGO-MIDWAY TSTM      47  46  97 N8        29.60F
AURORA         LGT RAIN  47  45  93 NE16      29.57F
LANSING*       LGT RAIN  49  49 100 NE5       29.61F
WAUKEGAN       CLOUDY    42  42 100 NE13G22   29.63F
DUPAGE AIRPORT RAIN      45  45 100 E7G22     29.59F
WHEELING       CLOUDY    43  43 100 NE12      29.64F
MORRIS*        CLOUDY    49  48  97 E5        29.53F
NORTHERLY ISL    N/A     46  45  96 N9          N/A
$$

LMZ740>746-010400-
SOUTHERN LAKE MICHIGAN

STATION/POSITION SKY/WX   TEMP    WIND        PRES    VSBY  WAVE
                          AIR SEA DIR/SP/G                  HT/PER
                          (F)     (DEG/KT/KT) (MB)    (MI)  (FT/S)
SOUTHERN BUOY              42 41   50/ 16/ 17 1006.5          3/ 4
HARRISON CRIB              45      10/ 10/ 11   N/A
BURNHAM HARBOR             46     360/  7/ 13   N/A
CALUMET HARBOR             46     360/  6/  8 1002.9F
BURNS HARBOR               49      40/  5/  7 1003.7F
MICHIGAN CITY              55      60/  5/  6   N/A
MICHIGAN CITY 6N           50 48                N/A           3/ 6
ST. JOSEPH                 53 46  110/ 10/ 12 1003.9F         2/ 5
$$

ILZ025>027-034>036-040-047-049-050-058-095>099-010400-
WEST-CENTRAL ILLINOIS

CITY           SKY/WX    TMP DP  RH WIND       PRES   REMARKS
QUINCY         CLOUDY    56  53  90 W14       29.52R
GALESBURG*     TSTM      55  55 100 E5        29.48S
MACOMB*        CLOUDY    56  56 100 S5        29.50S
PITTSFIELD*    PTCLDY    57  54  92 W5        29.53R
$$

ILZ028>032-037-038-041>044-048-051>054-059>061-010400-
CENTRAL ILLINOIS

CITY           SKY/WX    TMP DP  RH WIND       PRES   REMARKS
BLOOMINGTON    LGT RAIN  64  62  93 S22G28    29.52F
DECATUR        CLOUDY    68  65  90 S18G26    29.53S
PEORIA         CLOUDY    65  63  93 S12       29.48S
SPRINGFIELD    CLOUDY    67  62  84 S15G23    29.50R
TAYLORVILLE    NOT AVBL
$$

ILZ033-039-045-046-055>057-062-063-010400-
EAST-CENTRAL ILLINOIS

CITY           SKY/WX    TMP DP  RH WIND       PRES   REMARKS
CHAMPAIGN      TSTM      67  64  90 S26G37    29.55R FOG
MATTOON        CLOUDY    67  64  90 S14G22    29.56S
$$

ILZ079-100>102-010400-
SOUTHWEST ILLINOIS

CITY           SKY/WX    TMP DP  RH WIND       PRES   REMARKS
ALTON          CLEAR     63  50  63 S14       29.54R
BELLEVILLE     PTCLDY    63  54  72 SE6       29.54R
CAHOKIA*       CLEAR     64  47  53 S9G22     29.54R
$$

ILZ064>066-069>071-074>076-080>082-084>086-088>090-092>094-010400-
SOUTH-CENTRAL ILLINOIS

CITY           SKY/WX    TMP DP  RH WIND       PRES   REMARKS
CARBONDALE     CLOUDY    62  59  90 SW15G22   29.61R
CAIRO*         PTCLDY    63  54  72 SW20G29   29.66R
EFFINGHAM*     CLOUDY    68  67  94 SE12G20   29.59S
MARION         CLOUDY    64  63  94 SW14G23   29.61S
MT. VERNON     LGT RAIN  64  61  90 SW18      29.60R
CENTRALIA*     CLOUDY    67  62  85 SW20G28   29.58R
SALEM*         CLOUDY    68  63  85 S20G25    29.58R
$$

ILZ067-068-072-073-078-083-087-091-010400-
SOUTHEAST ILLINOIS

CITY           SKY/WX    TMP DP  RH WIND       PRES   REMARKS
LAWRENCEVILLE  CLOUDY    70  64  81 S24G30    29.62S
FLORA*         RAIN     N/A N/A N/A S21G28    29.59S
FAIRFIELD*     CLOUDY    68  67  96 S12       29.59S
HARRISBURG*    CLOUDY    69  65  88 S15G22    29.62R
ROBINSON*      CLOUDY    69  63  81 S17G24    29.61S
CARMI*         CLOUDY    69  65  86 S15G26    29.62R
$$

ABBREVIATIONS USED IN REMARKS
   TC - TEMPERATURE IN CELSIUS
  WCI - WIND CHILL INDEX
   HX - HEAT INDEX
  VSB - VISIBILITY
$$




USA.gov is the U.S. government's official web portal to all federal, state and local government web resources and services.